Find OneWeb SL0411

NORAD ID: 51623 Int'l Des: 2022-012 Owner: ONEWEBN Country: UK Constellation: oneweb operational
LEOCIRCULARPOLARONEWEB_TYPE

リアルタイム位置

3D地球を読み込み中...

OneWeb SL0411について

説明を読み込み中...

次回通過

Passes for default location (London). Set your location on the main map for personalized predictions.

高度履歴

Loading altitude history...

軌道要素

1 51623U 22012B 26124.48921558 -.00000460 00000-0 -13527-2 0 9993
2 51623 87.8860 44.9592 0001546 62.0399 298.0884 13.10371897203569
Epoch: May 4, 2026 • Age: 6 hours

現在のステータス

高度 1225.7 km
速度 7.24 km/s
衛星直下点 -3.23°S, 89.83°E
打ち上げ日 Feb 10, 2022
運用期間 4.2 years
タイプ internet

技術仕様

分類 Payload
質量 148.00 kg
乾燥質量 140.00 kg
総質量 148.00 kg
長さ 1.30 m
直径 1.00 m
スパン 5.00 m
形状 Trapezoid+2 pan
製造者 ONEWUS
バスタイプ ARROW
フェーズステータス In Orbit
所有者/国 ONEWEBN/UK

Most Searched